Temperature
13 13 13 13 13 12 12 12 12 12 11 11 11 11 11 11 11 11 11 11 10 11 10 10 10 10 10 10 10 10 10 10 10 10 10 10 10 10 10 10 10 10 10
12 12 12 12 12 12 12 12 12 11 11 11 11 11 11 11 10 10 10 10 10 10 10 10 10 10 10 10 10 10 10 10 10 10 10 10 10 10 10 10 10 10 10
12 12 12 12 12 12 11 11 11 11 11 10 10 10 10 10 10 10 10 10 10 10 10 10 10 10 10 10 10 10 10 10 10 9 10 10 10 10 10 10 10 10 10
12 12 12 11 11 11 11 11 11 10 10 10 10 10 10 10 10 10 10 10 10 10 10 9 9 9 9 9 10 9 9 9 9 9 9 9 9 10 10 10 10 10 10
12 11 11 11 11 11 10 10 10 10 10 10 10 10 9 9 10 10 9 9 9 9 9 9 9 9 9 9 9 9 9 9 9 9 9 9 9 9 9 9 9 9 10
11 11 11 11 10 10 10 10 10 10 10 10 9 9 9 9 9 9 9 9 9 9 9 9 9 9 9 9 9 9 9 9 9 9 9 9 9 9 9 9 9 9 9
11 11 11 10 10 10 10 10 9 9 9 9 9 9 9 9 9 9 9 9 8 9 9 9 9 9 9 9 9 9 9 9 9 9 8 9 9 9 9 9 9 9 9
10 10 10 10 10 10 9 9 9 9 9 9 9 9 9 9 9 9 9 8 8 8 8 8 8 9 9 8 8 8 9 9 9 9 8 9 9 9 9 9 9 9 8
10 10 10 10 9 9 9 9 9 8 8 8 8 8 8 8 8 8 8 8 8 8 8 8 8 8 9 8 8 8 8 8 9 9 9 9 9 9 9 8 8 8 8
9 9 9 9 9 9 9 9 8 8 8 8 8 8 8 8 8 8 8 8 8 8 8 8 8 8 8 8 8 8 8 8 8 8 8 8 8 8 8 8 8 8 7
9 9 9 9 9 8 8 8 8 8 8 8 8 8 7 7 7 8 8 7 7 7 7 8 8 8 8 8 8 8 8 8 7 8 8 8 8 8 8 8 8 8 7
9 9 8 8 8 8 8 8 8 7 7 7 7 7 7 7 7 7 7 7 7 7 7 7 8 8 8 8 8 8 8 8 7 7 7 7 7 8 8 8 8 7 7
8 8 8 8 8 8 7 7 7 7 7 7 7 7 7 7 7 7 7 7 7 7 7 7 7 7 7 7 7 7 7 7 7 7 7 7 7 7 7 7 7 7 7
7 7 7 7 7 7 7 7 7 7 6 6 6 6 6 6 7 7 7 7 7 7 7 7 7 7 7 7 7 7 7 7 7 6 7 7 7 7 7 7 7 7 7
7 7 7 7 7 7 6 6 6 6 6 6 6 6 6 6 6 7 6 6 6 6 6 6 6 6 6 6 6 7 6 6 6 6 6 6 6 6 6 6 6 6 6
7 6 6 6 6 6 6 6 6 6 6 6 6 6 6 6 6 6 6 6 6 6 6 6 6 6 6 6 6 6 6 6 6 6 6 6 6 6 6 6 6 6 6
6 6 6 6 6 6 5 5 5 5 5 5 5 5 5 5 5 5 5 6 6 6 5 5 5 5 5 5 5 5 5 5 5 5 5 5 5 5 5 5 5 5 5
6 6 6 6 5 5 5 5 5 5 5 5 5 5 5 5 5 5 5 5 5 5 5 5 5 5 5 5 5 5 5 5 5 5 5 5 5 5 5 5 5 5 5
5 5 5 5 5 5 5 5 5 5 5 4 4 4 4 4 4 4 4 4 4 4 4 4 4 4 4 4 4 4 4 4 4 4 4 4 4 4 4 4 4 4 4
5 5 5 5 5 4 4 4 4 4 4 4 4 4 4 4 4 4 4 4 4 4 4 3 3 4 4 4 4 4 4 4 4 4 4 4 4 4 4 4 4 4 4
5 5 5 4 4 4 4 4 4 4 3 3 3 3 3 3 3 3 3 3 3 3 3 3 3 3 3 3 3 3 3 3 3 3 3 3 3 3 3 3 3 3 3
5 4 4 4 4 4 4 3 3 3 3 3 3 3 3 3 3 3 3 3 3 3 3 3 3 3 3 3 3 3 3 3 3 3 3 3 3 3 3 3 3 3 3
4 4 4 4 4 3 3 3 3 3 2 2 2 2 3 2 2 2 2 2 2 2 2 2 2 2 2 2 2 2 2 2 2 2 2 2 2 2 2 2 3 3 3
4 4 4 3 3 3 3 3 2 2 2 2 2 2 2 2 2 2 2 2 2 2 2 2 2 2 2 2 2 1 1 1 1 2 2 2 2 2 2 2 2 2 2
4 3 3 3 3 3 2 2 2 2 2 1 1 1 1 1 1 1 1 1 1 2 1 1 1 1 1 1 1 1 1 1 1 1 1 1 1 1 2 2 2 2 2
3 3 3 3 2 2 2 2 2 1 1 1 1 1 1 1 1 1 1 1 1 1 1 1 1 1 1 1 1 1 1 1 1 1 1 1 1 1 1 1 1 1 1
Wind_Speed
4 3 3 2 2 2 2 2 2 2 2 2 2 2 2 2 2 2 2 2 2 2 2 2 2 2 2 1 2 2 2 2 2 2 2 1 2 2 2 2 2 1 1
4 3 3 2 2 2 2 2 2 2 2 2 2 2 2 2 3 2 2 2 2 2 2 2 2 1 2 2 2 2 2 2 2 2 2 2 2 2 2 2 2 1 1
4 4 3 3 2 2 2 2 2 2 2 2 2 2 2 2 2 3 3 3 2 2 2 2 3 3 3 3 3 3 2 2 2 2 2 2 2 2 3 3 2 2 2
3 3 3 3 2 2 2 2 2 2 2 2 2 2 2 2 3 3 3 3 3 3 3 3 3 3 4 4 3 3 2 3 3 3 3 2 2 2 3 3 2 2 2
3 2 2 2 2 2 2 2 2 2 2 2 2 2 2 2 2 3 3 3 3 3 3 3 3 4 5 4 3 3 3 3 3 3 3 3 3 2 2 3 3 3 3
3 2 2 2 2 2 2 2 2 2 2 2 2 2 2 2 2 4 5 4 4 4 4 4 4 3 4 4 4 5 4 4 4 4 3 4 4 4 3 3 3 3 2
3 2 2 2 2 2 2 2 2 2 2 2 3 3 3 2 2 3 5 5 5 5 5 5 4 4 4 5 5 6 6 6 6 6 6 5 5 4 4 4 4 4 4
3 2 2 2 2 2 2 2 3 3 3 3 3 3 4 3 2 3 5 6 5 5 5 5 5 5 4 5 5 4 5 5 6 6 6 6 5 5 5 5 4 4 4
2 3 2 3 2 2 2 3 3 3 3 3 3 4 4 4 2 4 5 5 5 5 5 5 5 6 4 5 5 5 5 4 5 6 6 5 4 3 4 4 4 4 3
2 3 3 3 3 3 3 3 3 3 3 3 3 4 5 5 3 4 6 4 5 5 5 5 4 6 5 5 6 6 6 5 4 4 5 5 5 4 5 5 5 4 3
2 2 2 3 3 3 3 2 2 3 3 3 4 4 4 4 3 3 5 5 5 5 5 4 4 4 6 6 6 6 6 5 4 4 3 3 3 3 4 5 5 5 5
2 2 2 2 2 2 2 2 2 2 3 3 3 4 3 3 4 4 5 6 7 6 5 5 4 4 5 6 5 5 5 5 4 3 3 3 3 3 3 4 5 5 6
2 3 2 2 2 2 2 2 2 2 2 3 3 3 3 3 3 4 5 6 7 6 5 5 5 4 5 5 5 5 5 4 4 4 4 4 3 4 3 3 4 5 6
3 3 2 2 2 2 2 2 2 2 2 3 3 3 4 4 3 3 4 4 5 5 5 4 5 5 5 5 4 4 5 4 4 4 4 4 3 3 3 3 3 3 4
3 3 2 2 2 2 2 2 3 2 2 3 4 4 4 4 4 6 5 5 4 4 5 4 4 3 3 4 4 4 4 4 4 4 4 4 3 3 3 3 3 4 4
3 2 2 2 2 2 2 2 2 3 3 4 5 6 5 5 6 6 7 7 7 5 4 4 4 4 4 4 4 4 4 4 4 4 4 4 4 4 4 3 4 4 5
3 2 2 2 2 2 3 3 3 3 2 3 4 5 5 5 4 5 5 5 5 4 4 4 4 5 5 4 4 4 4 4 4 4 4 4 4 4 4 4 4 4 5
3 3 2 3 3 3 3 3 3 4 4 4 4 4 4 5 4 4 4 3 3 3 4 4 4 4 4 4 4 4 4 4 4 4 4 4 4 4 4 5 5 5 5
4 3 3 3 3 3 3 3 3 4 4 4 4 3 3 4 4 4 3 3 3 3 4 4 4 4 4 4 4 4 4 4 4 4 4 5 5 5 5 5 5 5 6
3 3 3 3 3 2 3 3 3 4 4 4 4 4 3 3 3 3 3 4 4 4 4 4 4 4 4 4 4 4 4 4 4 5 5 5 5 5 6 6 6 6 6
3 3 3 3 3 3 3 4 4 4 4 4 4 4 5 4 4 5 4 4 5 5 5 5 5 5 5 4 4 5 5 5 4 4 5 5 5 5 5 6 6 6 5
3 3 3 3 3 3 4 4 4 4 5 5 4 4 4 4 4 5 5 5 5 5 5 5 5 4 5 5 5 5 5 5 5 5 5 5 5 6 6 5 5 5 5
3 3 3 4 4 3 4 4 4 4 4 5 4 4 4 4 4 5 5 5 5 5 4 4 5 4 4 5 5 5 5 5 5 5 5 5 5 5 5 6 7 6 6
4 4 4 4 4 4 4 4 4 4 5 5 5 5 5 5 5 6 6 5 5 5 5 5 5 6 6 5 5 5 5 6 6 6 7 6 5 5 5 6 6 7 7
4 4 4 4 4 4 4 4 4 4 5 5 5 5 5 5 5 5 5 5 6 5 6 5 5 5 7 7 6 6 6 6 7 6 6 5 6 6 6 6 6 6 6
4 4 4 4 4 4 4 4 5 5 5 5 5 5 5 6 5 5 5 5 5 5 5 5 6 7 7 7 8 8 7 7 7 7 6 5 5 5 6 6 7 6 6
Wind_Direction
191 197 199 207 214 220 232 248 258 271 273 267 259 261 267 269 268 265 278 292 302 311 309 297 285 288 297 295 293 278 278 278 267 287 294 305 298 307 323 325 322 305 117
191 195 198 199 205 214 229 242 252 266 270 266 263 263 271 278 277 275 278 287 293 303 312 307 301 294 280 286 283 265 258 260 259 274 285 290 291 297 296 289 291 293 264
185 191 193 196 202 218 233 243 250 262 266 260 260 264 275 283 280 280 281 282 283 287 291 289 286 289 278 274 268 255 251 251 250 247 263 268 277 280 288 276 262 268 257
180 185 192 198 202 215 227 239 253 260 266 266 271 273 279 283 280 278 284 280 282 286 285 282 284 283 280 280 265 254 246 246 246 240 247 254 264 275 267 268 273 265 255
172 183 199 205 205 212 225 238 244 255 263 266 266 269 277 279 287 285 278 279 282 285 287 287 292 305 309 301 284 263 245 244 241 244 249 253 258 266 272 277 274 275 256
174 182 186 202 205 214 227 237 248 260 266 264 261 264 271 278 321 311 296 276 280 280 280 280 280 272 276 278 283 287 278 259 251 244 249 258 262 262 260 265 272 272 261
172 173 181 204 214 223 229 234 248 259 266 270 266 267 269 275 302 296 290 281 275 278 278 277 278 277 276 273 250 250 254 265 272 262 257 261 264 259 251 250 251 260 270
181 185 198 220 229 233 236 247 255 259 260 266 276 275 275 278 282 282 280 266 269 270 273 275 275 279 279 288 271 259 259 254 256 258 260 266 267 263 247 247 245 254 263
197 205 212 220 225 230 236 249 258 262 262 267 274 279 278 277 278 276 274 266 266 268 269 271 276 280 297 294 272 262 261 260 241 250 273 286 291 274 248 235 226 227 248
220 224 223 225 227 236 242 248 255 260 262 268 273 277 279 283 288 278 273 263 267 269 268 267 277 288 301 287 262 262 263 267 270 253 245 249 253 228 212 225 229 230 240
225 226 224 228 236 244 246 248 254 259 263 269 273 278 281 285 278 278 279 269 271 274 272 272 275 283 281 274 264 262 270 278 264 262 258 250 247 239 223 228 233 233 238
224 227 232 237 244 250 251 252 256 263 265 272 278 285 285 287 294 289 281 275 284 273 273 276 282 282 276 268 256 268 276 266 257 250 247 248 245 243 241 238 242 240 245
226 227 234 242 241 237 240 252 257 263 272 278 281 288 296 299 302 300 285 278 279 274 279 296 300 290 275 264 256 254 253 251 248 244 244 249 254 249 245 241 240 245 253
224 230 230 236 245 231 235 245 254 259 272 279 284 288 291 290 297 308 301 292 281 278 281 280 269 263 260 275 272 244 241 245 245 245 251 253 253 244 242 243 247 242 249
223 230 235 239 250 245 243 257 254 253 271 275 277 279 282 281 302 318 304 294 294 291 290 282 278 274 264 261 267 257 243 238 241 244 244 248 253 250 249 246 248 247 250
221 228 236 242 254 262 261 268 290 276 286 285 295 295 289 302 318 310 300 298 299 292 278 275 274 270 268 267 266 265 251 244 246 241 239 244 251 253 250 252 247 246 252
232 235 240 242 248 259 261 260 273 288 281 270 279 292 296 308 310 307 301 292 284 272 269 272 273 273 273 269 267 265 260 252 248 246 242 243 249 253 247 245 244 247 252
240 242 243 242 247 254 260 261 263 270 279 283 282 283 288 287 286 295 299 292 280 265 272 277 278 279 276 275 273 272 270 263 246 246 247 244 243 249 249 246 244 249 255
237 237 241 247 248 253 263 264 265 268 276 284 291 294 300 292 273 268 259 266 267 274 279 280 284 286 283 280 274 268 265 262 254 245 246 245 242 246 250 248 248 249 251
233 241 251 246 247 256 265 269 272 273 277 280 284 292 304 299 287 280 272 272 268 271 276 278 280 283 282 283 285 280 273 267 264 258 253 251 251 251 251 250 247 243 241
232 226 238 249 246 254 264 266 269 272 274 279 282 291 298 281 278 276 274 274 274 275 277 276 275 278 278 277 277 278 278 274 270 267 261 257 253 249 248 247 245 245 245
233 230 232 245 253 256 263 266 268 268 271 277 284 287 285 277 279 278 275 275 274 274 275 274 272 271 269 269 271 273 276 276 272 271 268 263 258 251 248 244 243 243 244
237 237 239 245 251 257 261 263 269 274 276 277 280 280 277 280 282 279 279 279 278 276 273 269 270 273 271 268 267 268 271 276 276 275 271 268 263 255 249 244 242 240 241
243 244 248 248 250 250 252 259 264 270 275 280 280 278 277 278 278 281 283 283 281 276 272 270 269 270 273 275 274 274 278 285 286 276 268 269 267 262 256 250 246 241 242
247 248 249 249 251 254 258 261 264 267 270 275 278 279 279 280 281 283 284 283 280 276 275 275 273 270 271 272 276 279 286 287 285 285 275 264 262 259 257 252 252 249 246
251 254 256 258 259 260 263 267 270 272 271 273 275 277 280 281 281 282 283 281 280 277 275 272 274 276 277 275 277 280 281 279 277 275 270 261 255 254 254 251 254 252 254
Height
1535 1536 1536 1537 1537 1538 1538 1538 1538 1538 1537 1537 1536 1536 1536 1535 1534 1534 1533 1533 1532 1531 1530 1530 1529 1529 1528 1528 1528 1527 1527 1527 1526 1526 1525 1524 1523 1522 1521 1520 1519 1518 1518
1533 1534 1535 1535 1535 1536 1536 1536 1536 1536 1535 1535 1535 1534 1534 1533 1533 1532 1531 1531 1530 1529 1529 1528 1528 1527 1527 1526 1526 1525 1525 1525 1525 1524 1523 1522 1521 1520 1519 1519 1518 1518 1517
1531 1532 1533 1533 1533 1534 1534 1534 1534 1534 1533 1533 1533 1532 1532 1531 1531 1531 1530 1529 1528 1528 1527 1527 1526 1526 1525 1524 1524 1523 1523 1523 1522 1522 1521 1520 1519 1518 1518 1517 1517 1516 1516
1528 1529 1530 1530 1531 1531 1532 1532 1532 1532 1532 1531 1531 1530 1530 1529 1529 1529 1528 1527 1526 1526 1525 1525 1524 1524 1523 1523 1522 1521 1521 1521 1520 1520 1519 1518 1517 1517 1516 1516 1515 1515 1514
1526 1527 1528 1528 1529 1529 1529 1530 1530 1529 1529 1529 1529 1528 1528 1527 1527 1527 1526 1525 1524 1524 1523 1522 1522 1521 1521 1520 1520 1519 1519 1519 1518 1517 1517 1516 1516 1515 1514 1514 1514 1513 1513
1523 1525 1525 1526 1526 1527 1527 1527 1527 1527 1527 1527 1526 1526 1525 1525 1524 1524 1524 1523 1522 1521 1521 1520 1520 1519 1518 1517 1517 1517 1517 1516 1515 1515 1514 1514 1513 1513 1512 1512 1512 1511 1511
1521 1522 1523 1523 1524 1524 1524 1524 1524 1524 1524 1524 1524 1523 1523 1522 1522 1521 1521 1520 1520 1519 1518 1518 1517 1517 1516 1515 1514 1513 1513 1513 1512 1512 1512 1512 1511 1510 1509 1509 1509 1509 1509
1519 1519 1520 1521 1521 1521 1521 1521 1522 1522 1522 1521 1521 1521 1520 1520 1519 1518 1518 1517 1517 1516 1516 1515 1514 1514 1513 1512 1511 1510 1510 1509 1509 1509 1509 1509 1508 1507 1507 1507 1507 1506 1506
1516 1517 1518 1518 1518 1518 1518 1518 1519 1519 1519 1518 1518 1518 1517 1517 1516 1515 1515 1514 1514 1513 1512 1512 1511 1511 1510 1509 1508 1507 1506 1506 1505 1505 1505 1505 1504 1504 1504 1504 1504 1504 1503
1513 1514 1515 1515 1515 1515 1516 1516 1516 1516 1516 1515 1515 1515 1514 1514 1513 1512 1512 1512 1511 1510 1509 1508 1508 1507 1506 1505 1505 1504 1503 1502 1502 1501 1501 1501 1500 1500 1500 1500 1500 1500 1500
1511 1512 1512 1512 1512 1512 1513 1513 1513 1513 1513 1513 1512 1512 1511 1511 1510 1509 1508 1508 1507 1507 1506 1505 1504 1503 1503 1502 1501 1500 1500 1499 1499 1498 1497 1497 1497 1497 1497 1497 1497 1497 1498
1508 1509 1509 1510 1510 1510 1510 1510 1510 1510 1510 1510 1509 1509 1508 1507 1507 1506 1505 1505 1504 1503 1502 1501 1500 1499 1499 1498 1497 1497 1496 1496 1495 1494 1494 1493 1493 1493 1493 1494 1494 1494 1494
1505 1506 1506 1507 1507 1507 1507 1506 1506 1506 1507 1506 1506 1505 1505 1504 1503 1502 1502 1501 1500 1499 1498 1497 1496 1495 1495 1494 1493 1493 1492 1492 1491 1491 1490 1490 1490 1490 1490 1490 1490 1490 1490
1502 1503 1503 1503 1503 1504 1504 1504 1503 1503 1503 1503 1503 1502 1501 1501 1500 1499 1498 1497 1496 1495 1494 1493 1492 1491 1490 1490 1489 1489 1488 1488 1487 1487 1487 1487 1486 1486 1486 1486 1486 1485 1486
1500 1500 1500 1500 1500 1500 1500 1500 1500 1500 1500 1500 1499 1498 1498 1497 1496 1496 1495 1494 1493 1492 1490 1489 1488 1487 1486 1485 1485 1484 1484 1484 1483 1483 1483 1483 1482 1482 1482 1482 1482 1481 1482
1497 1497 1497 1497 1497 1497 1497 1497 1497 1497 1497 1496 1496 1495 1494 1494 1492 1491 1491 1490 1489 1488 1487 1485 1484 1483 1482 1481 1480 1480 1480 1479 1479 1479 1479 1479 1478 1478 1478 1478 1478 1478 1478
1494 1494 1494 1494 1494 1494 1494 1494 1493 1493 1493 1492 1492 1491 1490 1489 1489 1488 1487 1486 1485 1484 1483 1481 1480 1479 1478 1478 1477 1476 1475 1475 1475 1475 1475 1475 1474 1474 1473 1473 1474 1474 1474
1492 1492 1492 1491 1491 1491 1491 1490 1490 1489 1488 1488 1488 1487 1486 1485 1484 1483 1482 1481 1480 1479 1478 1477 1476 1475 1474 1474 1473 1472 1471 1471 1471 1471 1471 1470 1470 1470 1469 1469 1469 1469 1470
1489 1489 1489 1489 1488 1488 1488 1487 1487 1486 1485 1484 1483 1482 1482 1481 1480 1479 1478 1477 1476 1475 1474 1473 1472 1471 1470 1469 1468 1468 1467 1466 1466 1466 1466 1465 1465 1465 1465 1465 1465 1465 1465
1486 1486 1486 1485 1485 1485 1484 1484 1483 1482 1481 1480 1479 1478 1477 1476 1475 1474 1473 1472 1471 1470 1470 1469 1467 1467 1466 1465 1464 1463 1463 1462 1462 1461 1461 1461 1460 1460 1460 1460 1460 1460 1461
1483 1483 1483 1482 1482 1482 1481 1480 1479 1478 1477 1476 1475 1474 1473 1472 1471 1470 1469 1468 1467 1465 1465 1464 1463 1462 1461 1461 1460 1459 1458 1457 1457 1456 1456 1456 1456 1456 1455 1456 1456 1456 1456
1480 1480 1479 1479 1479 1478 1477 1477 1476 1475 1473 1472 1471 1470 1469 1468 1467 1466 1465 1463 1462 1461 1460 1459 1458 1458 1457 1456 1455 1454 1453 1452 1452 1451 1451 1450 1450 1451 1451 1451 1451 1451 1451
1476 1476 1476 1475 1475 1474 1473 1473 1472 1470 1469 1468 1467 1466 1464 1463 1462 1461 1460 1458 1457 1456 1455 1454 1453 1452 1452 1451 1450 1449 1449 1448 1447 1446 1446 1446 1446 1446 1446 1446 1446 1446 1447
1473 1472 1472 1471 1471 1470 1469 1468 1467 1466 1465 1464 1462 1461 1460 1459 1457 1456 1455 1453 1452 1451 1450 1449 1448 1447 1446 1446 1445 1444 1444 1443 1442 1442 1441 1441 1440 1440 1441 1441 1441 1441 1442
1469 1468 1468 1467 1466 1466 1465 1464 1463 1462 1461 1459 1458 1457 1456 1454 1453 1451 1450 1448 1447 1446 1445 1444 1443 1442 1441 1440 1440 1439 1438 1438 1437 1437 1436 1435 1435 1435 1435 1436 1436 1437 1437
1465 1465 1464 1463 1462 1462 1461 1460 1459 1458 1457 1455 1454 1453 1451 1450 1448 1446 1445 1443 1442 1441 1440 1438 1438 1437 1436 1435 1434 1434 1433 1432 1432 1431 1431 1430 1430 1430 1431 1431 1431 1432 1432